Weather reports worldwide

Advertisment
Inverbervie, United Kingdom (3088): temperature & dewpoint: 21.04.2017 04:00:00 - 27.04.2017 04:00:00 (BST)Inverbervie, United Kingdom (3088): temperature -20cm & temperature -100cm: 21.04.2017 04:00:00 - 27.04.2017 04:00:00 (BST)Inverbervie, United Kingdom (3088): wind speed & gusts: 21.04.2017 04:00:00 - 27.04.2017 04:00:00 (BST)Inverbervie, United Kingdom (3088): wind direction: 21.04.2017 04:00:00 - 27.04.2017 04:00:00 (BST)Inverbervie, United Kingdom (3088): reduced air pressure: 21.04.2017 04:00:00 - 27.04.2017 04:00:00 (BST)Inverbervie, United Kingdom (3088): visibility: 21.04.2017 04:00:00 - 27.04.2017 04:00:00 (BST)Inverbervie, United Kingdom (3088): precipitation: 21.04.2017 04:00:00 - 27.04.2017 04:00:00 (BST)
Date & Time tt [°C] td [°C] tt -20cm [°C] tt -100cm [°C] ff [km/h] ff [kn] fx [km/h] fx [kn] dd ppp [hPa] vv [km] rr [mm]
27.04.2017 04:00:00 5,9 3,0 - - 16 9 - - WNW 1015,4 50 0,0
27.04.2017 03:00:00 5,8 3,1 - - 16 9 - - WNW 1016,0 50 0,0
27.04.2017 02:00:00 5,8 2,9 - - 21 11 - - WNW 1016,1 45 0,0
27.04.2017 01:00:00 5,9 2,9 - - 22 12 - - WNW 1016,5 50 0,0
27.04.2017 00:00:00 5,2 2,4 - - 16 9 - - WNW 1017,2 50 0,0
26.04.2017 23:00:00 5,1 2,5 - - 18 10 - - WNW 1017,9 45 0,0
26.04.2017 22:00:00 5,4 2,4 - - 18 10 - - WNW 1018,3 35 0,0
26.04.2017 21:00:00 6,1 1,4 - - 16 9 - - WNW 1018,7 35 0,0
26.04.2017 20:00:00 6,8 1,0 - - 11 6 - - W 1018,8 40 0,0
26.04.2017 19:00:00 6,9 0,0 - - 15 8 - - WNW 1019,1 45 0,0
26.04.2017 18:00:00 6,9 -0,5 - - 16 9 - - NW 1019,3 45 0,0
26.04.2017 17:00:00 7,3 0,2 - - 13 7 - - NNW 1019,5 40 0,0
26.04.2017 16:00:00 6,1 -1,0 - - 21 11 - - N 1019,9 40 0,0
26.04.2017 15:00:00 4,9 0,4 - - 18 10 - - NNW 1020,4 40 0,0
26.04.2017 14:00:00 5,0 0,7 - - 21 11 - - N 1020,4 45 0,0
26.04.2017 13:00:00 5,4 -0,9 - - 18 10 - - NW 1020,3 50 0,0
26.04.2017 12:00:00 7,0 1,5 - - 24 13 - - NNW 1020,2 30 0,0
26.04.2017 11:00:00 5,4 -0,2 - - 26 14 55 30 NNW 1020,1 30 0,0
26.04.2017 10:00:00 3,8 -1,0 7,7 8,0 35 19 50 27 NNW 1019,9 30 0,0
26.04.2017 09:00:00 2,7 -0,7 - - 26 14 - - NW 1020,0 28 0,0
26.04.2017 08:00:00 2,4 -0,1 - - 28 15 - - NW 1019,7 30 0,0
26.04.2017 07:00:00 1,2 -0,3 - - 28 15 - - NW 1019,6 20 0,0
26.04.2017 06:00:00 1,0 -0,7 - - 28 15 54 29 NW 1019,5 29 0,0
26.04.2017 05:00:00 1,2 -0,7 - - 34 18 50 27 NNW 1019,2 30 0,0
26.04.2017 04:00:00 0,7 -0,7 - - 29 16 - - NW 1019,1 28 0,0
26.04.2017 03:00:00 1,1 -1,2 - - 29 16 - - NNW 1019,3 30 0,0
26.04.2017 02:00:00 1,2 -0,9 - - 29 16 48 26 NNW 1019,3 40 0,0
26.04.2017 01:00:00 1,3 -0,8 - - 28 15 - - NNW 1019,3 22 0,0
26.04.2017 00:00:00 1,2 -0,5 - - 31 17 - - NW 1019,1 21 0,0
25.04.2017 23:00:00 1,3 -0,3 - - 26 14 - - NW 1019,1 23 0,0
25.04.2017 22:00:00 1,7 0,1 - - 28 15 - - NNW 1019,0 20 0,0
25.04.2017 21:00:00 1,4 0,5 - - 28 15 55 30 NNW 1018,6 20 0,6
25.04.2017 20:00:00 3,3 1,5 - - 28 15 57 31 N 1017,8 21 0,0
25.04.2017 19:00:00 3,8 0,9 - - 39 21 63 34 NNW 1017,2 22 0,0
25.04.2017 18:00:00 3,7 2,1 - - 41 22 68 37 NNW 1016,7 20 0,2
25.04.2017 17:00:00 3,0 2,6 - - 29 16 61 33 NNW 1017,0 25 2,4
25.04.2017 16:00:00 4,5 2,5 - - 48 26 78 42 NNW 1016,1 35 0,2
25.04.2017 15:00:00 5,1 2,5 - - 39 21 72 39 NNW 1015,1 30 0,0
25.04.2017 14:00:00 2,5 1,7 - - 34 18 68 37 NNW 1015,4 22 2,0
25.04.2017 13:00:00 4,1 2,7 - - 28 15 65 35 NNW 1014,9 21 0,4
25.04.2017 12:00:00 5,0 3,3 - - 39 21 57 31 NNW 1013,8 30 0,6
25.04.2017 11:00:00 4,4 3,5 - - 37 20 52 28 NW 1013,3 35 0,8
25.04.2017 10:00:00 2,4 1,5 8,2 8,0 34 18 52 28 NNW 1013,1 4,4 0,6
25.04.2017 09:00:00 1,0 0,7 - - 28 15 57 31 NW 1012,4 20 1,2
25.04.2017 08:00:00 1,5 0,8 - - 35 19 57 31 NW 1011,7 5 1,0
25.04.2017 07:00:00 0,4 0,0 - - 35 19 65 35 NW 1011,3 2,6 0,6
25.04.2017 06:00:00 1,2 -0,3 - - 39 21 63 34 NW 1010,7 6 0,4
25.04.2017 05:00:00 1,3 -0,1 - - 39 21 61 33 NW 1011,0 30 0,0
25.04.2017 04:00:00 1,3 0,1 - - 35 19 52 28 NW 1011,4 40 0,0
25.04.2017 03:00:00 0,6 -0,1 - - 37 20 52 28 NW 1011,4 9 0,0
25.04.2017 02:00:00 0,3 -1,7 - - 24 13 - - WNW 1011,8 23 0,0
25.04.2017 01:00:00 -0,2 -1,9 - - 22 12 - - NW 1012,4 50 0,0
25.04.2017 00:00:00 -0,2 -2,1 - - 21 11 - - NNW 1012,6 45 0,0
24.04.2017 23:00:00 0,1 -0,7 - - 16 9 - - NNW 1012,7 30 0,0
24.04.2017 22:00:00 1,4 -1,3 - - 18 10 - - N 1011,9 35 0,0
24.04.2017 21:00:00 1,3 -1,3 - - 13 7 - - NNW 1011,4 40 0,0
24.04.2017 20:00:00 2,1 -1,1 - - 21 11 48 26 NW 1010,7 30 0,0
24.04.2017 19:00:00 2,4 -0,8 - - 31 17 59 32 NW 1010,8 29 0,0
24.04.2017 18:00:00 1,4 -1,0 - - 42 23 67 36 NNW 1010,3 30 0,0
24.04.2017 17:00:00 0,9 0,2 - - 46 25 70 38 NNW 1009,9 4,2 0,8
24.04.2017 16:00:00 1,6 1,0 - - 34 18 48 26 NW 1009,3 6 1,0
24.04.2017 15:00:00 4,6 3,0 - - 34 18 65 35 N 1008,4 45 0,2
24.04.2017 14:00:00 7,1 2,2 - - 29 16 - - NW 1007,5 35 0,0
24.04.2017 13:00:00 6,0 0,0 - - 15 8 50 27 NW 1008,4 20 0,0
24.04.2017 12:00:00 6,9 -4,1 - - 28 15 48 26 W 1008,8 30 0,0
24.04.2017 11:00:00 7,3 -2,9 - - 28 15 - - W 1010,0 30 0,0
24.04.2017 10:00:00 5,8 -2,9 8,7 8,0 22 12 - - W 1010,8 45 0,0
24.04.2017 09:00:00 5,0 -0,5 - - 21 11 - - WNW 1011,5 24 0,0
24.04.2017 08:00:00 2,6 1,0 - - 18 10 - - NW 1012,5 35 0,2
24.04.2017 07:00:00 2,8 0,0 - - 16 9 - - WNW 1012,6 35 0,0
24.04.2017 06:00:00 2,6 -0,2 - - 16 9 - - NNW 1012,9 35 0,0
24.04.2017 05:00:00 2,8 0,2 - - 28 15 - - WNW 1012,4 40 0,0
24.04.2017 04:00:00 3,3 0,2 - - 22 12 54 29 NW 1012,9 40 0,0
24.04.2017 03:00:00 4,0 0,0 - - 29 16 63 34 NW 1012,4 40 0,0
24.04.2017 02:00:00 5,4 1,9 - - 37 20 55 30 NW 1011,9 45 0,2
24.04.2017 01:00:00 6,1 4,2 - - 29 16 46 25 WNW 1012,5 40 0,6
24.04.2017 00:00:00 6,7 2,8 - - 13 7 - - SSW 1012,2 45 0,0
23.04.2017 23:00:00 7,4 2,5 - - 31 17 50 27 WSW 1012,6 40 0,0
23.04.2017 22:00:00 7,8 1,9 - - 31 17 52 28 WSW 1013,5 35 0,0
23.04.2017 21:00:00 8,7 1,5 - - 39 21 55 30 W 1014,1 50 0,0
23.04.2017 20:00:00 10,1 1,4 - - 35 19 54 29 WSW 1014,7 45 0,0
23.04.2017 19:00:00 10,7 1,5 - - 41 22 55 30 WSW 1015,0 35 0,0
23.04.2017 18:00:00 11,2 1,4 - - 29 16 48 26 W 1016,0 50 0,0
23.04.2017 17:00:00 11,3 1,3 - - 31 17 54 29 WSW 1016,9 50 0,0
23.04.2017 16:00:00 10,7 1,1 - - 31 17 46 25 WSW 1018,0 35 0,0
23.04.2017 15:00:00 11,6 1,3 - - 35 19 54 29 WSW 1019,0 45 0,0
23.04.2017 14:00:00 11,7 1,1 - - 34 18 46 25 WSW 1020,0 35 0,0
23.04.2017 13:00:00 11,6 2,1 - - 24 13 - - SSW 1021,4 30 0,0
23.04.2017 12:00:00 11,3 1,9 - - 13 7 - - WSW 1022,3 40 0,0
23.04.2017 11:00:00 9,4 0,9 - - 13 7 - - W 1023,3 30 0,0
23.04.2017 10:00:00 9,2 0,6 8,5 8,0 15 8 - - W 1023,8 40 0,0
23.04.2017 09:00:00 7,3 1,1 - - 11 6 - - WNW 1024,4 40 0,0
23.04.2017 08:00:00 4,7 0,5 - - 13 7 - - WNW 1024,8 40 0,0
23.04.2017 07:00:00 3,5 0,1 - - 15 8 - - WNW 1025,1 50 0,0
23.04.2017 06:00:00 2,8 -0,3 - - 13 7 - - WNW 1025,7 45 0,0
23.04.2017 05:00:00 2,0 -0,5 - - 13 7 - - WNW 1026,2 45 0,0
23.04.2017 04:00:00 2,6 -0,3 - - 13 7 - - WNW 1026,4 45 0,0
23.04.2017 03:00:00 3,5 0,0 - - 13 7 - - W 1026,7 30 0,0
23.04.2017 02:00:00 3,6 0,8 - - 11 6 - - W 1027,3 50 0,0
23.04.2017 01:00:00 3,1 1,1 - - 11 6 - - W 1027,9 50 0,0
23.04.2017 00:00:00 3,3 1,0 - - 15 8 - - NW 1028,0 45 0,0
22.04.2017 23:00:00 4,4 1,6 - - 24 13 - - NW 1028,2 12 0,0
22.04.2017 22:00:00 3,5 1,3 - - 16 9 - - NNW 1028,2 29 0,0
22.04.2017 21:00:00 4,3 1,6 - - 28 15 - - N 1027,8 30 0,0
22.04.2017 20:00:00 5,6 0,9 - - 16 9 - - NNW 1027,9 30 0,0
22.04.2017 19:00:00 6,6 1,2 - - 26 14 - - N 1027,8 50 0,0
22.04.2017 18:00:00 7,8 2,1 - - 13 7 - - WNW 1027,6 40 0,0
22.04.2017 17:00:00 7,3 0,3 - - 15 8 - - NW 1027,9 45 0,0
22.04.2017 16:00:00 8,0 -0,2 - - 18 10 - - NW 1028,2 40 0,0
22.04.2017 15:00:00 8,6 -1,4 - - 22 12 - - NW 1028,3 30 0,0
22.04.2017 14:00:00 7,6 -2,2 - - 22 12 - - NNW 1028,7 50 0,0
22.04.2017 13:00:00 6,8 -2,4 - - 22 12 - - NW 1028,9 26 0,0
22.04.2017 12:00:00 4,4 0,3 - - 24 13 - - NNW 1029,5 22 0,0
22.04.2017 11:00:00 6,3 -0,6 - - 22 12 - - NW 1029,4 28 0,0
22.04.2017 10:00:00 5,9 -0,8 8,7 8,0 22 12 - - NW 1029,2 40 0,0
22.04.2017 09:00:00 6,0 1,7 - - 18 10 - - NW 1029,2 45 0,0
22.04.2017 08:00:00 3,5 1,4 - - 13 7 - - NW 1029,4 40 0,0
22.04.2017 07:00:00 3,2 0,4 - - 9 5 - - WNW 1029,3 10 0,0
22.04.2017 06:00:00 2,4 -0,6 - - 13 7 - - WNW 1028,9 35 0,0
22.04.2017 05:00:00 2,7 -0,5 - - 13 7 - - WNW 1028,8 27 0,0
22.04.2017 04:00:00 3,2 -0,7 - - 9 5 - - WNW 1029,0 28 0,0
22.04.2017 03:00:00 3,4 -0,7 - - 9 5 - - WNW 1029,3 29 0,0
22.04.2017 02:00:00 3,8 -0,4 - - 8 4 - - W 1029,4 35 0,0
22.04.2017 01:00:00 3,6 -0,3 - - 22 12 - - WNW 1029,3 18 0,0
22.04.2017 00:00:00 4,2 -0,4 - - 18 10 - - NW 1029,2 35 0,0
21.04.2017 23:00:00 4,7 -0,4 - - 21 11 - - NW 1029,1 30 0,0
21.04.2017 22:00:00 5,1 -0,3 - - 21 11 - - NW 1028,9 30 0,0
21.04.2017 21:00:00 4,8 1,1 - - 35 19 54 29 NNW 1028,5 35 0,0
21.04.2017 20:00:00 6,8 0,6 - - 29 16 54 29 NW 1027,7 45 0,0
21.04.2017 19:00:00 8,2 0,7 - - 34 18 50 27 NW 1026,9 40 0,0
21.04.2017 18:00:00 9,8 1,7 - - 37 20 57 31 NW 1026,4 25 0,0
21.04.2017 17:00:00 10,3 3,0 - - 34 18 52 28 NW 1026,0 40 0,0
21.04.2017 16:00:00 10,6 2,4 - - 37 20 63 34 WNW 1026,0 35 0,0
21.04.2017 15:00:00 10,2 3,5 - - 41 22 68 37 NW 1025,4 50 0,0
21.04.2017 14:00:00 10,4 4,8 - - 35 19 54 29 NW 1025,4 30 0,0
21.04.2017 13:00:00 9,4 4,6 - - 22 12 54 29 NW 1025,7 50 0,0
21.04.2017 12:00:00 8,5 4,4 - - 41 22 59 32 NW 1025,1 45 0,0
21.04.2017 11:00:00 8,6 6,2 - - 26 14 - - NNW 1025,3 40 0,2
21.04.2017 10:00:00 8,2 7,5 8,7 7,9 16 9 - - NNW 1024,9 17 0,4
21.04.2017 09:00:00 10,7 7,5 - - 26 14 46 25 WSW 1023,2 40 0,0
21.04.2017 08:00:00 9,9 7,0 - - 34 18 52 28 WSW 1023,1 50 0,0
21.04.2017 07:00:00 9,9 6,8 - - 37 20 48 26 W 1023,1 50 0,0
21.04.2017 06:00:00 9,2 6,6 - - 29 16 - - SW 1023,8 50 0,0
21.04.2017 05:00:00 8,9 6,4 - - 29 16 - - WSW 1024,5 50 0,0
21.04.2017 04:00:00 9,2 6,3 - - 29 16 - - WSW 1025,3 50 0,0

tt = temperature
td = dewpoint
tt -20cm = temperature -20cm
tt -100cm = temperature -100cm
ff = wind speed
fx = gusts
dd = wind direction
ppp = reduced air pressure
vv = visibility
rr = precipitation

Next stations